Date String (YYYY-MM-DD hh:mm:ss) UTC,Instrument flags,Ambient pressure (hPa),Sample flow (lpm),Bypass flow (lpm),Sample temperature (°C),Ambient temperature (°C),ASC tube jacket temperature (°C),LED temperature (°C),Box temperature (°C),Sample RH (%),Span deviation,Mass concentration (μg/m³),Mass concentration (μg/m³),Mass concentration (μg/m³)
DateTimeUTC,F1_M11,P_M11,Q1_M11,Q2_M11,T1_M11,T2_M11,T3_M11,T4_M11,T5_M11,U1_M11,ZSPAN_M11,X0_M11,X2_M11,X1_M11
2022-03-15 05:00:00,,0831.4,5.00,0.00,26.8,26.0,00.0,35.7,28.6,06.8,0000.0,0004.07,0002.28,0001.50
2022-03-15 05:01:00,,0831.4,4.99,0.00,26.8,26.0,00.0,35.7,28.6,06.8,0000.0,0004.04,0002.24,0001.49
2022-03-15 05:02:00,,0831.4,5.00,0.00,26.8,26.0,00.0,35.7,28.6,07.0,0000.0,0003.92,0002.19,0001.47
2022-03-15 05:03:00,,0831.4,5.00,0.00,26.8,26.0,00.0,35.7,28.6,07.0,0000.0,0003.88,0002.14,0001.44
2022-03-15 05:04:00,,0831.3,5.01,0.00,26.8,26.0,00.0,35.7,28.6,07.0,0000.0,0003.50,0002.08,0001.43
2022-03-15 05:05:00,,0831.3,4.99,0.00,26.8,26.0,00.0,35.7,28.5,06.8,0000.0,0003.43,0002.04,0001.40
2022-03-15 05:06:00,,0831.3,5.01,0.00,26.8,26.0,00.0,35.7,28.5,06.7,0000.0,0003.98,0002.05,0001.40
2022-03-15 05:07:00,,0831.2,4.98,0.00,26.8,25.9,00.0,35.7,28.5,06.5,0000.0,0004.13,0002.05,0001.39
2022-03-15 05:08:00,,0831.2,5.00,0.00,26.8,25.9,00.0,35.7,28.5,06.6,0000.0,0004.02,0002.01,0001.39
2022-03-15 05:09:00,,0831.1,5.01,0.00,26.8,25.9,00.0,35.7,28.5,06.7,0000.0,0004.19,0002.06,0001.39
2022-03-15 05:10:00,,0831.1,5.00,0.00,26.8,25.9,00.0,35.7,28.5,06.7,0000.0,0004.09,0002.02,0001.38
2022-03-15 05:11:00,,0831.2,4.99,0.00,26.7,25.9,00.0,35.7,28.5,06.8,0000.0,0004.15,0002.04,0001.36
2022-03-15 05:12:00,,0831.2,5.00,0.00,26.7,25.9,00.0,35.7,28.5,07.3,0000.0,0004.04,0002.00,0001.35
2022-03-15 05:13:00,,0831.2,5.00,0.00,26.7,25.9,00.0,35.7,28.5,07.0,0000.0,0004.01,0002.01,0001.35
2022-03-15 05:14:00,,0831.2,5.01,0.00,26.7,25.9,00.0,35.7,28.5,06.5,0000.0,0004.04,0002.03,0001.34
2022-03-15 05:15:00,,0831.2,5.00,0.00,26.7,25.9,00.0,35.7,28.5,06.5,0000.0,0004.02,0002.04,0001.33
2022-03-15 05:16:00,,0831.1,4.98,0.00,26.7,25.9,00.0,35.7,28.5,06.6,0000.0,0003.91,0002.04,0001.34
2022-03-15 05:17:00,,0831.1,5.00,0.00,26.7,25.9,00.0,35.7,28.5,06.8,0000.0,0003.32,0002.02,0001.33
2022-03-15 05:18:00,,0831.2,5.00,0.00,26.7,25.9,00.0,35.7,28.4,07.0,0000.0,0003.14,0002.00,0001.33
2022-03-15 05:19:00,,0831.2,5.01,0.00,26.7,25.9,00.0,35.7,28.4,07.1,0000.0,0003.22,0002.01,0001.32
2022-03-15 05:20:00,,0831.2,5.00,0.00,26.7,25.8,00.0,35.7,28.4,07.1,0000.0,0003.08,0001.96,0001.31
2022-03-15 05:21:00,,0831.2,4.98,0.00,26.7,25.8,00.0,35.7,28.4,07.1,0000.0,0003.01,0001.94,0001.31
2022-03-15 05:22:00,,0831.2,5.00,0.00,26.7,25.8,00.0,35.7,28.4,07.0,0000.0,0003.00,0001.91,0001.31
2022-03-15 05:23:00,,0831.2,5.00,0.00,26.7,25.8,00.0,35.7,28.4,07.0,0000.0,0003.08,0001.94,0001.32
2022-03-15 05:24:00,,0831.1,5.01,0.00,26.6,25.8,00.0,35.7,28.4,07.1,0000.0,0002.95,0001.87,0001.31
2022-03-15 05:25:00,,0831.0,5.01,0.00,26.7,25.8,00.0,35.7,28.4,07.1,0000.0,0003.71,0001.80,0001.31
2022-03-15 05:26:00,,0831.0,4.98,0.00,26.6,25.8,00.0,35.6,28.4,06.9,0000.0,0003.92,0001.74,0001.32
2022-03-15 05:27:00,,0830.9,5.01,0.00,26.6,25.8,00.0,35.6,28.4,06.6,0000.0,0003.89,0001.73,0001.32
2022-03-15 05:28:00,,0831.0,5.01,0.00,26.7,25.8,00.0,35.6,28.4,06.7,0000.0,0003.93,0001.74,0001.32
2022-03-15 05:29:00,,0831.0,4.98,0.00,26.6,25.8,00.0,35.6,28.4,06.9,0000.0,0004.16,0001.80,0001.33
2022-03-15 05:30:00,,0831.0,5.00,0.00,26.6,25.8,00.0,35.6,28.4,07.2,0000.0,0004.15,0001.80,0001.33
2022-03-15 05:31:00,,0831.0,5.01,0.00,26.6,25.8,00.0,35.6,28.4,07.5,0000.0,0004.12,0001.80,0001.34
2022-03-15 05:32:00,,0831.0,5.00,0.00,26.6,25.8,00.0,35.6,28.4,07.3,0000.0,0004.17,0001.83,0001.35
2022-03-15 05:33:00,,0831.0,5.01,0.00,26.6,25.8,00.0,35.6,28.4,07.1,0000.0,0004.05,0001.79,0001.35
2022-03-15 05:34:00,,0831.0,4.98,0.00,26.6,25.7,00.0,35.6,28.4,07.2,0000.0,0004.09,0001.77,0001.34
2022-03-15 05:35:00,,0831.0,5.01,0.00,26.6,25.8,00.0,35.6,28.4,07.0,0000.0,0004.31,0001.83,0001.35
2022-03-15 05:36:00,,0830.9,5.00,0.00,26.6,25.8,00.0,35.6,28.3,07.1,0000.0,0003.60,0001.84,0001.35
2022-03-15 05:37:00,,0830.9,5.01,0.00,26.6,25.7,00.0,35.6,28.4,07.0,0000.0,0003.13,0001.87,0001.35
2022-03-15 05:38:00,,0830.9,4.98,0.00,26.6,25.7,00.0,35.6,28.4,07.3,0000.0,0003.18,0001.92,0001.35
2022-03-15 05:39:00,,0830.9,5.01,0.00,26.6,25.7,00.0,35.6,28.4,07.6,0000.0,0003.26,0001.95,0001.35
2022-03-15 05:40:00,,0831.0,5.00,0.00,26.6,25.7,00.0,35.6,28.4,08.0,0000.0,0003.24,0001.96,0001.36
2022-03-15 05:41:00,,0831.0,5.00,0.00,26.6,25.7,00.0,35.5,28.4,08.1,0000.0,0003.12,0001.95,0001.36
2022-03-15 05:42:00,,0830.9,5.00,0.00,26.6,25.7,00.0,35.5,28.4,07.5,0000.0,0003.06,0001.92,0001.36
2022-03-15 05:43:00,,0830.9,5.00,0.00,26.6,25.7,00.0,35.5,28.4,07.3,0000.0,0003.15,0001.96,0001.37
2022-03-15 05:44:00,,0830.9,5.01,0.00,26.6,25.7,00.0,35.5,28.4,06.7,0000.0,0003.58,0002.15,0001.45
2022-03-15 05:45:00,,0830.9,4.98,0.00,26.6,25.8,00.0,35.5,28.4,06.7,0000.0,0003.76,0002.24,0001.51
2022-03-15 05:46:00,,0830.8,5.01,0.00,26.6,25.8,00.0,35.5,28.4,06.7,0000.0,0004.89,0002.27,0001.55
2022-03-15 05:47:00,,0830.9,5.01,0.00,26.6,25.7,00.0,35.5,28.4,06.7,0000.0,0005.98,0002.34,0001.60
2022-03-15 05:48:00,,0830.9,5.00,0.00,26.6,25.7,00.0,35.5,28.4,06.7,0000.0,0006.91,0002.37,0001.63
2022-03-15 05:49:00,,0830.9,5.01,0.00,26.6,25.7,00.0,35.5,28.4,06.7,0000.0,0007.28,0002.37,0001.65
2022-03-15 05:50:00,,0830.9,5.00,0.00,26.6,25.7,00.0,35.5,28.4,06.7,0000.0,0007.44,0002.46,0001.67
2022-03-15 05:51:00,,0830.9,4.98,0.00,26.6,25.7,00.0,35.5,28.4,06.7,0000.0,0007.74,0002.56,0001.69
2022-03-15 05:52:00,,0830.9,5.01,0.00,26.6,25.7,00.0,35.5,28.4,06.6,0000.0,0009.08,0002.80,0001.74
2022-03-15 05:53:00,,0830.9,5.01,0.00,26.6,25.7,00.0,35.5,28.4,06.6,0000.0,0010.01,0003.02,0001.77
2022-03-15 05:54:00,,0830.9,5.00,0.00,26.6,25.7,00.0,35.5,28.4,06.7,0000.0,0011.09,0003.12,0001.79
2022-03-15 05:55:00,,0830.8,5.01,0.00,26.6,25.7,00.0,35.5,28.4,06.6,0000.0,0011.41,0003.11,0001.74
2022-03-15 05:56:00,,0830.8,4.98,0.00,26.6,25.7,00.0,35.5,28.4,06.6,0000.0,0011.65,0003.16,0001.73
2022-03-15 05:57:00,,0830.7,5.00,0.00,26.6,25.7,00.0,35.5,28.4,06.5,0000.0,0011.37,0003.22,0001.72
2022-03-15 05:58:00,,0830.7,5.00,0.00,26.6,25.7,00.0,35.5,28.4,06.6,0000.0,0011.33,0003.27,0001.69
2022-03-15 05:59:00,,0830.7,5.01,0.00,26.6,25.7,00.0,35.5,28.4,06.6,0000.0,0011.03,0003.30,0001.68
